Regional Weather Roundup
Issued by NWS Newport/Morehead, NC

Current Version | Previous Version | Text Only | Print | Product List | Glossary On
Versions: 1 2 3 4 5 6 7 8 9 10 11 12 13 14 15 16 17 18 19 20 21 22 23 24 25 26 27 28 29 30 31 32 33 34 35 36 37 38 39 40 41 42 43 44 45 46 47 48 49 50
000 ASUS42 KMHX 240324 RWRMHX WEATHER ROUNDUP FOR EASTERN NORTH CAROLINA NATIONAL WEATHER SERVICE NEWPORT/MOREHEAD CITY NC 1100 PM EDT SAT MAY 23 2015 NOTE: "FAIR" INDICATES FEW OR NO CLOUDS BELOW 12,000 FEET WITH NO SIGNIFICANT WEATHER AND/OR OBSTRUCTIONS TO VISIBILITY NCZ015>017-031-032-045>047-102-103-240400- NORTH COAST CITY SKY/WX TMP DP RH WIND PRES REMARKS EDENTON CLEAR 62 50 65 SE6 30.42S ELIZABETH CITY CLEAR 59 51 75 E5 30.42S KITTY HAWK CLEAR 60 55 82 E5 30.41F MANTEO CLEAR 60 54 80 E5 30.43F $$ NCZ045>047-081-094-103-104-240400- CENTRAL COAST CITY SKY/WX TMP DP RH WIND PRES REMARKS FRISCO CLEAR 60 56 86 NE6 30.42S SWANQUARTER N/A 59 N/A N/A NE2 30.39S $$ NCZ095-097-098-100-101-240400- SOUTHERN COAST CITY SKY/WX TMP DP RH WIND PRES REMARKS BEAUFORT CLEAR 65 56 72 E3 30.40F CEDAR ISLAND N/A 68 N/A N/A E12 30.44S JACKSONVILLE CLEAR 67 55 65 E8 30.39S PINEY ISLAND CLEAR N/A N/A N/A E8 30.41S WILMINGTON CLEAR 63 59 87 NE3 30.39R $$ NCZ011>013-027>030-043-044-078>080-089-090>093-098-240400- COASTAL PLAIN CITY SKY/WX TMP DP RH WIND PRES REMARKS AHOSKIE CLEAR 58 51 76 SE3 30.42R CLINTON CLEAR 65 56 71 CALM 30.40S ELIZABETHTOWN CLEAR 64 53 67 CALM 30.38F GOLDSBORO NOT AVBL GREENVILLE CLEAR 64 52 63 SE5 30.41S HAVELOCK CLEAR 61 51 70 E3 30.42S KENANSVILLE CLEAR 60 54 81 CALM 30.41S KINSTON CLEAR 66 54 63 E5 30.41R NEW BERN CLEAR 66 53 63 E6 30.42S RICHLANDS CLEAR 59 52 77 CALM 30.40F ROCKY MOUNT CLEAR 65 55 70 SE3 30.40R WASHINGTON CLEAR 62 52 70 E5 30.41F WHITEVILLE CLEAR 61 54 78 CALM 30.38S $$ AMZ130-135-150-152-154-156-158-170-250-252-270-ANZ085-086-088-633-658-670-240400- MARINE OBSERVATIONS STATION/POSITION TIME TEMP WIND PRES WAVE SWELL AIR SEA DIR/SP/G HT/PER HT/PER (UTC) (F) (DEG/KT/KT) (MB) (FT/S) (FT/S) CHESAPEAKE LIGHT 0300 60 150/ 11/ 11 1031.0 64 E VA BEACH 0250 61 61 100/ 6/ 6 1030.2 2/ 6 2/ 6 DUCK 0300 61 64 100/ 10/ 11 1029.2 2 E DUCK 0211 63 N/A 2/ 5 OREGON INLET 0300 62 72 60/ 7/ 9 1030.1 13E OREGON INLT 0300 62 N/A 2/ 4 HATTERAS CG 0300 65 74 60/ 4/ 7 1029.4 DIAMOND BUOY 0250 71 78 50/ 8/ 12 1029.7 3/ 7 3/ 7 CAPE LOOKOUT 0300 70 60/ 11/ 12 1029.2 BEAUFORT LAB 0300 67 75 60/ 3/ 5 1028.7 27 SE WRIGHTSVLE 0300 71 77 120/ 14/ 16 N/A 5 SE WRIGHTSVLE NOT AVBL 225 S CAPE HAT 0250 72 74 80/ 21/ 27 1027.8 7/ 6 2/ 9 41 SE CHARLESTON 0250 75 75 90/ 17/ 19 1027.0 5/ 5 2/11 $$

USA.gov is the U.S. government's official web portal to all federal, state and local government web resources and services.